KH6DH-13 Weather Reports


time (UTC)temp
C
wind
direction
speed
KPH
gust
KPH
rain 1hr
cm
rain 24hr
cm
rain mn
cm
humidity
%
barometer
mb
20260504150618 22 76 4.8 11.3 0.00 0.08 0.00
20260504140612 22 135 1.6 11.3 0.00 0.08 0.00
20260504130600 22 46 1.6 6.4 0.00 0.08 0.00
20260504110548 22 113 3.2 8.0 0.00 0.08 0.00
20260504100542 22 127 1.6 9.7 0.03 0.08 0.00
20260504081531 23 290 0.0 4.8 0.00 0.00 0.05
20260504080530 23 41 3.2 14.5 0.00 0.00 0.05
20260504050541 24 129 6.4 16.1 0.00 0.00 0.03
20260504050508 24 129 6.4 16.1 0.00 0.00 0.03
20260504045507 24 70 4.8 14.5 0.00 0.00 0.03
20260504044503 25 314 6.4 14.5 0.00 0.00 0.03
20260504043502 25 359 6.4 12.9 0.00 0.00 0.03
20260504042501 25 32 6.4 19.3 0.00 0.00 0.03
20260504041500 26 76 4.8 17.7 0.00 0.00 0.03
20260504040459 26 210 3.2 9.7 0.00 0.00 0.03
20260504035458 27 39 4.8 17.7 0.00 0.00 0.03
20260504034457 28 343 6.4 17.7 0.00 0.00 0.03
20260504033456 31 58 9.7 19.3 0.00 0.00 0.03
20260504032455 31 359 9.7 14.5 0.00 0.00 0.03
20260504031454 29 60 4.8 16.1 0.00 0.00 0.03
20260504030453 29 73 6.4 20.9 0.00 0.00 0.03
20260504025452 30 55 6.4 20.9 0.00 0.00 0.03
20260504024451 30 339 6.4 20.9 0.00 0.00 0.03
20260504023450 29 35 6.4 19.3 0.00 0.00 0.03
20260504022449 30 107 8.0 17.7 0.00 0.00 0.03
20260504021448 28 66 6.4 20.9 0.00 0.00 0.03
20260504020447 29 94 4.8 17.7 0.00 0.00 0.03
20260504015446 28 82 9.7 20.9 0.00 0.00 0.03
20260504014445 28 356 8.0 19.3 0.00 0.00 0.03
20260504013444 28 152 3.2 19.3 0.00 0.00 0.03
20260504012443 28 28 8.0 17.7 0.00 0.00 0.03
20260504011442 30 46 9.7 20.9 0.00 0.00 0.03
20260504010441 30 93 14.5 25.7 0.00 0.00 0.03
20260504005440 28 56 11.3 25.7 0.00 0.00 0.03
20260504004439 28 53 9.7 22.5 0.00 0.00 0.03
20260504003438 28 14 11.3 29.0 0.00 0.00 0.03
20260504002437 28 107 12.9 25.7 0.00 0.00 0.03
20260504001436 28 63 4.8 27.4 0.00 0.00 0.03
20260504000435 28 79 6.4 16.1 0.00 0.00 0.03
20260503235434 28 91 6.4 25.7 0.00 0.00 0.03
20260503234433 28 89 8.0 20.9 0.00 0.00 0.03
20260503233432 28 77 14.5 22.5 0.00 0.00 0.03
20260503232431 28 45 11.3 24.1 0.00 0.00 0.03
20260503231430 28 63 6.4 19.3 0.00 0.00 0.03
20260503230429 28 104 8.0 12.9 0.00 0.00 0.03
20260503225428 28 115 6.4 14.5 0.00 0.00 0.03
20260503224427 27 80 12.9 24.1 0.00 0.00 0.03
20260503223426 27 63 6.4 24.1 0.00 0.00 0.03
20260503222425 28 38 9.7 22.5 0.00 0.00 0.03
20260503221424 27 113 11.3 20.9 0.00 0.00 0.03
20260503220423 27 155 6.4 17.7 0.00 0.00 0.03
20260503215422 27 342 9.7 17.7 0.00 0.00 0.03
20260503214421 27 86 11.3 14.5 0.00 0.00 0.03
20260503213420 27 98 9.7 16.1 0.00 0.00 0.03
20260503212419 27 77 4.8 17.7 0.00 0.00 0.03
20260503211418 27 93 3.2 17.7 0.00 0.00 0.03
20260503210417 26 104 9.7 16.1 0.00 0.00 0.03
20260503205416 26 252 4.8 16.1 0.00 0.00 0.03
20260503204415 26 42 9.7 22.5 0.00 0.00 0.03
20260503203414 26 56 8.0 16.1 0.00 0.00 0.03
20260503202413 25 28 4.8 14.5 0.00 0.00 0.03
20260503201412 25 79 6.4 14.5 0.00 0.00 0.03
20260503200411 25 24 4.8 19.3 0.00 0.00 0.03
20260503195410 24 15 4.8 12.9 0.00 0.00 0.03
20260503194409 24 86 4.8 12.9 0.00 0.00 0.03
20260503193408 23 84 1.6 6.4 0.00 0.00 0.03
20260503192407 23 69 6.4 14.5 0.00 0.00 0.03
20260503191406 24 31 4.8 11.3 0.00 0.00 0.03
20260503190358 24 108 4.8 12.9 0.00 0.00 0.03
20260503185355 23 45 6.4 12.9 0.00 0.00 0.03
20260503184354 23 108 4.8 14.5 0.00 0.00 0.03
20260503183353 23 14 3.2 17.7 0.03 0.00 0.03
20260503182352 23 59 1.6 9.7 0.03 0.00 0.03
20260503181351 23 93 4.8 16.1 0.03 0.00 0.03
20260503180350 22 56 6.4 11.3 0.03 0.00 0.03
20260503175349 22 0 3.2 11.3 0.03 0.00 0.03
20260503174348 22 309 1.6 6.4 0.03 0.00 0.03
20260503173347 22 80 8.0 12.9 0.00 0.00 0.03
20260503172346 22 86 3.2 11.3 0.00 0.00 0.00
20260503171345 22 14 0.0 12.9 0.00 0.00 0.00
20260503170344 22 32 6.4 14.5 0.00 0.00 0.00